Header for Extended Forecast Station List Page

Search by: ID | Name | Date | Parm | Value | Avg | % Avg
Sort by: ID | Name | Date | Parm | Value | Avg | % Avg

Enter search or view all records.

Click on id for station plot
#IDNameDateParmValueAvg% Avg
0HWRI1BIG LOST-AT HOWELL RANCH NEAR CHILLY04-28-2016DISCHARGE (KAF)14815993
1MACI1BIG LOST-MACKAY RESERVOIR NEAR MACKAY04-28-2016INFLOW (KAF)12815981
2HALI1BIG WOOD-AT HAILEY04-28-2016DISCHARGE (KAF)20421794
3MAGI1BIG WOOD-MAGIC DAM04-28-2016INFLOW (KAF)15817988
4BITM8BITTERROOT-NEAR MISSOULA04-28-2016DISCHARGE (KAF)913111882
5BONM8BLACKFOOT-NEAR BONNER04-28-2016DISCHARGE (KAF)50174367
6BIGI1BOISE-AT GLENWOOD BRIDGE04-28-2016DISCHARGE (KAF)595414144
7LUCI1BOISE-LUCKY PEAK DAM04-28-2016INFLOW (KAF)1218MM
8PARI1BOISE-NEAR PARMA04-28-2016DISCHARGE (KAF)536365147
9HOTI1BRUNEAU-NEAR HOT SPRINGS04-28-2016DISCHARGE (KAF)153145106
10BULO3BULLY CREEK-BULLY CREEK DAM04-28-2016INFLOW (KAF)11142
11BUDW1BUMPING-BUMPING LAKE DAM04-28-2016INFLOW (KAF)7810276
12CHDW1CHELAN-LAKE CHELAN DAM04-28-2016INFLOW (KAF)951949100
13ABOM8CLARK FORK-ABOVE MISSOULA04-28-2016DISCHARGE (KAF)922130771
14DLGM8CLARK FORK-AT DEER LODGE04-28-2016DISCHARGE (KAF)516776
15SRGM8CLARK FORK-AT ST REGIS04-28-2016DISCHARGE (KAF)2409326174
16BELM8CLARK FORK-BELOW MISSOULA04-28-2016DISCHARGE (KAF)1835246374
17CABI1CLARK FORK-CABINET GORGE DAM04-28-2016INFLOW (KAF)6858858780
18NOXM8CLARK FORK-NOXON RAPIDS DAM04-28-2016INFLOW (KAF)6223809477
19DRMM8CLARK FORK-NR DRUMMOND04-28-2016DISCHARGE (KAF)158MM
20CLUW1CLE ELUM-CLE ELUM LAKE04-28-2016INFLOW (KAF)23233370
21ORFI1CLEARWATER-AT OROFINO04-28-2016DISCHARGE (KAF)3091382781
22SPDI1CLEARWATER-AT SPALDING04-28-2016DISCHARGE (KAF)5193567592
23COEI1COEUR D ALENE-COEUR D ALENE LAKE04-28-2016INFLOW (KAF)1216179068
24CIBW1COLUMBIA-AT INTL BOUNDARY04-28-2016DISCHARGE (KAF)28567MM
25BONO3COLUMBIA-BONNEVILLE DAM04-28-2016INFLOW (KAF)49534MM
26CHJW1COLUMBIA-CHIEF JOSEPH DAM04-28-2016INFLOW (KAF)270073119187
27GCDW1COLUMBIA-GRAND COULEE DAM04-28-2016INFLOW (KAF)314964150676
28JDAO3COLUMBIA-JOHN DAY DAM04-28-2016INFLOW (KAF)484926210478
29MCDW1COLUMBIA-MCNARY DAM04-28-2016INFLOW (KAF)472936060778
30PRWW1COLUMBIA-PRIEST RAPIDS DAM04-28-2016INFLOW (KAF)315474205675
31RRHW1COLUMBIA-ROCKY REACH DAM04-28-2016INFLOW (KAF)304193433389
32TDAO3COLUMBIA-THE DALLES DAM04-28-2016INFLOW (KAF)486885583987
33WANW1COLUMBIA-WANAPUM DAM04-28-2016INFLOW (KAF)315384118177
34WELW1COLUMBIA-WELLS DAM04-28-2016INFLOW (KAF)294003374487
35DEDI1DEADWOOD-NEAR LOWMAN04-28-2016INFLOW (KAF)10712288
36MODO3DESCHUTES-AT MOODY NR BIGGS04-28-2016DISCHARGE (KAF)1135122792
37ARDW1ENTIAT-NEAR ARDENVOIR04-28-2016DISCHARGE (KAF)209188111
38CHEI1FALL RIVER-NEAR CHESTER04-28-2016DISCHARGE (KAF)19028966
39CFMM8FLATHEAD-AT COLUMBIA FALLS04-28-2016DISCHARGE (KAF)3344383487
40KERM8FLATHEAD-KERR DAM04-28-2016INFLOW (KAF)3869478081
41TRYO3GRANDE RONDE-TROY04-28-2016DISCHARGE (KAF)62393267
42REXI1HENRYS FORK-AT REXBURG04-28-2016DISCHARGE (KAF)42166563
43ANTI1HENRYS FORK-AT ST. ANTHONY04-28-2016DISCHARGE (KAF)40957871
44IPDI1HENRYS FORK-ISLAND PARK DAM04-28-2016INFLOW (KAF)13820667
45HODO3HOOD-NEAR TUCKER BRIDGE04-28-2016DISCHARGE (KAF)12916777
46SERO3JOHN DAY-AT SERVICE CK04-28-2016DISCHARGE (KAF)25050749
47KADW1KACHESS-KACHESS DAM04-28-2016INFLOW (KAF)598273
48LAUW1KETTLE-AT LAURIER04-28-2016DISCHARGE (KAF)1430152594
49PITW1KLICKITAT-NEAR PITT04-28-2016DISCHARGE (KAF)402387104
50BFEI1KOOTENAI-AT BONNERS FERRY04-28-2016STAGE (FT)MMM
51LEOI1KOOTENAI-AT LEONIA04-28-2016DISCHARGE (KAF)3521518068
52LYDM8KOOTENAI-LIBBY DAM04-28-2016INFLOW (KAF)4650574481
53LWRI1LITTLE WOOD-LITTLE WOOD DAM04-28-2016INFLOW (KAF)336254
54BERO3MALHEUR-AGENCY VALLEY DAM04-28-2016INFLOW (KAF)212486
55VALO3MALHEUR-NEAR VALE04-28-2016DISCHARGE (KAF)93823
56WRMO3MALHEUR-WARM SPRINGS DAM04-28-2016INFLOW (KAF)1715114
57MYKO3MCKAY CREEK-NEAR PILOT ROCK04-28-2016DISCHARGE (KAF)189
58PATW1METHOW-NEAR PATEROS04-28-2016DISCHARGE (KAF)926786118
59WGCM8MF FLATHEAD-NEAR WEST GLACIER04-28-2016DISCHARGE (KAF)1159147179
60CLFW1NACHES-NEAR CLIFFDEL04-28-2016DISCHARGE (KAF)26530886
61NACW1NACHES-NEAR NACHES04-28-2016DISCHARGE (KAF)433435100
62DWRI1NF CLEARWATER-DWORSHAK DAM04-28-2016INFLOW (KAF)1634211877
63FCFM8NF FLATHEAD-NEAR COLUMBIA FALLS04-28-2016DISCHARGE (KAF)1186152178
64MONO3NF JOHN DAY-AT MONUMENT04-28-2016DISCHARGE (KAF)18136549
65CSDI1NF PAYETTE-CASCADE DAM04-28-2016INFLOW (KAF)35440687
66TONW1OKANOGAN-NEAR TONASKET04-28-2016DISCHARGE (KAF)14361368105
67OWYO3OWYHEE-OWYHEE DAM04-28-2016INFLOW (KAF)234167140
68EMMI1PAYETTE-NEAR EMMETT04-28-2016DISCHARGE (KAF)938103890
69ALFW1PEND OREILLE-ALBENI FALLS DAM04-28-2016INFLOW (KAF)7973985181
70HOPI1PEND OREILLE-PEND OREILLE LAKE NR HOPE04-28-2016LAKE ELEVATION (FT)MMM
71PIHI1PORTNEUF-AT POCATELLO04-28-2016DISCHARGE (KAF)425477
72PRTI1PRIEST-NEAR PRIEST RIVER04-28-2016DISCHARGE (KAF)682657104
73RCCM8ROCK CREEK-NEAR CLINTON04-28-2016DISCHARGE (KAF)22524990
74WHBI1SALMON-AT WHITEBIRD04-28-2016DISCHARGE (KAF)4764532989
75ARAI1SF BOISE-ANDERSON RANCH DAM04-28-2016INFLOW (KAF)35742584
76HHWM8SF FLATHEAD-HUNGRY HORSE DAM04-28-2016INFLOW (KAF)1361174478
77PLDI1SF SNAKE-PALISADES DAM04-28-2016INFLOW (KAF)2381296780
78SIFI1SNAKE-AB EAGLE ROCK NR IDAHO FALLS04-28-2016DISCHARGE (KAF)1980241182
79AFRI1SNAKE-AMERICAN FALLS RESERVOIR04-28-2016INFLOW (KAF)1653214377
80SNAI1SNAKE-AT BLACKFOOT04-28-2016DISCHARGE (KAF)1178164572
81MILI1SNAKE-AT MILNER04-28-2016DISCHARGE (KAF)211209101
82WEII1SNAKE-AT WEISER04-28-2016DISCHARGE (KAF)3623403990
83SWAI1SNAKE-BELOW SWAN FALLS04-28-2016DISCHARGE (KAF)1784210685
84BRNI1SNAKE-BROWNLEE DAM04-28-2016INFLOW (KAF)3979432292
85IHDW1SNAKE-ICE HARBOR DAM04-28-2016INFLOW (KAF)147681701387
86JLKW4SNAKE-JACKSON LAKE AT DAM04-28-2016INFLOW (KAF)57975177
87LGSW1SNAKE-LITTLE GOOSE DAM04-28-2016INFLOW (KAF)147351706686
88LGDW1SNAKE-LOWER GRANITE DAM04-28-2016INFLOW (KAF)147341704086
89LMNW1SNAKE-LOWER MONUMENTAL DAM04-28-2016INFLOW (KAF)147681710186
90ALPW4SNAKE-NEAR ALPINE04-28-2016DISCHARGE (KAF)1693211380
91ANAW1SNAKE-NEAR ANATONE04-28-2016DISCHARGE (KAF)95421132984
92BFTI1SNAKE-NEAR BLACKFOOT04-28-2016DISCHARGE (KAF)1133152674
93HEII1SNAKE-NEAR HEISE04-28-2016DISCHARGE (KAF)2977310696
94JKSW4SNAKE-NEAR JACKSON04-28-2016DISCHARGE (KAF)1423165786
95SHYI1SNAKE-NEAR SHELLEY04-28-2016DISCHARGE (KAF)1758216681
96LLKW1SPOKANE-AT LONGLAKE04-28-2016INFLOW (KAF)1415227462
97SPOW1SPOKANE-AT SPOKANE04-28-2016DISCHARGE (KAF)1230MM
98SJMI1ST JOE-AT ST MARIES04-28-2016STAGE (FT)MMM
99SATI1ST MARIES-NEAR SANTA04-28-2016DISCHARGE (KAF)468553
100STRM8ST. REGIS-NEAR ST. REGIS04-28-2016DISCHARGE (KAF)13920368
101TNAW1TEANAWAY-BELOW FORKS04-28-2016DISCHARGE (KAF)607580
102TEAI1TETON-NEAR ST. ANTHONY04-28-2016DISCHARGE (KAF)28833985
103RILW1TIETON-RIMROCK LAKE NEAR RIMROCK04-28-2016INFLOW (KAF)17117697
104PDTO3UMATILLA-AT PENDLETON04-28-2016DISCHARGE (KAF)457262
105GIBO3UMATILLA-NEAR GIBBON04-28-2016DISCHARGE (KAF)304369
106UMAO3UMATILLA-NEAR UMATILLA04-28-2016DISCHARGE (KAF)3630121
107TCHW1WALLA WALLA-NEAR TOUCHET04-28-2016DISCHARGE (KAF)405868
108WSRI1WEISER-NEAR WEISER04-28-2016DISCHARGE (KAF)18725473
109PESW1WENATCHEE-AT PESHASTIN04-28-2016DISCHARGE (KAF)1077129983
110UNDW1WHITE SALMON-NEAR UNDERWOOD04-28-2016DISCHARGE (KAF)274265103
111RIDI1WILLOW CREEK-RIRIE DAM04-28-2016INFLOW (KAF)243080
112EASW1YAKIMA-AT EASTON04-28-2016DISCHARGE (KAF)10990122
113KIOW1YAKIMA-AT KIONA04-28-2016DISCHARGE (KAF)721686105
114UMTW1YAKIMA-AT UMTANUM04-28-2016DISCHARGE (KAF)879807109
115KEDW1YAKIMA-KEECHELUS LAKE04-28-2016INFLOW (KAF)669074
116PARW1YAKIMA-NEAR PARKER04-28-2016DISCHARGE (KAF)427349122